Change the Weather History Date:

Wednesday, March 6, 2013

  Actual Average (KN60) Record (KN60)
Temperature  
Mean Temperature 14 °F -  
Max Temperature 19 °F 21 °F 52 °F (2005)
Min Temperature 10 °F 3 °F -13 °F (2008)
Degree Days  
Heating Degree Days 50    
Moisture  
Dew Point 10 °F    
Average Humidity 80    
Maximum Humidity 86    
Minimum Humidity 73    
Precipitation  
Precipitation 0.00 in - - ()
Sea Level Pressure  
Sea Level Pressure 30.22 in    
Wind  
Wind Speed 9 mph (SE)    
Max Wind Speed 17 mph    
Max Gust Speed 21 mph    
Visibility 10 miles    
Events Snow    
Averages and records for this station are not official NWS values.
T = Trace of Precipitation, MM = Missing Value Source: NWS Daily Summary

Daily Weather History Graph

Daily Weather History Graph

Search for Another Location

Airport or City:

Trip Planner

Search our weather history database for the weather conditions in past years. The results will help you decide how hot, cold, wet, or windy it might be!

Date:

Astronomy

Mar. 06, 2013 Rise Set
Actual Time 7:16 AM CST 6:39 PM CST
Civil Twilight 6:45 AM CST 7:09 PM CST
Nautical Twilight 6:10 AM CST 7:45 PM CST
Astronomical Twilight 5:34 AM CST 8:21 PM CST
Moon 3:44 AM CST (3/6) 1:06 PM CST (3/6)
Length of Visible Light 12h 24m
Length of Day
11h 22m
Waning Crescent, 29% of the Moon is Illuminated
Mar 6
Waning Crescent
Mar 11
New
Mar 19
First Quarter
Mar 27
Full
Apr 2
Last Quarter

Hourly Weather History & Observations

Time (CST) Temp. Windchill Dew Point Humidity Pressure Visibility Wind Dir Wind Speed Gust Speed Precip Events Conditions
12:15 AM 14.0 °F 6.5 °F 10.4 °F 86% 30.37 in 10.0 mi ESE 4.6 mph - N/A   Overcast
12:35 AM 14.0 °F 3.9 °F 10.4 °F 86% 30.37 in 10.0 mi SE 6.9 mph - N/A   Overcast
12:55 AM 14.0 °F 6.5 °F 10.4 °F 86% 30.37 in 10.0 mi SSE 4.6 mph - N/A Snow Light Snow
1:15 AM 14.0 °F 3.9 °F 10.4 °F 86% 30.36 in 10.0 mi South 6.9 mph - N/A   Overcast
1:35 AM 14.0 °F 6.5 °F 10.4 °F 86% 30.35 in 10.0 mi ESE 4.6 mph - N/A   Overcast
1:55 AM 14.0 °F 5.1 °F 10.4 °F 86% 30.35 in 10.0 mi SE 5.8 mph - N/A   Overcast
2:15 AM 14.0 °F 3.9 °F 10.4 °F 86% 30.35 in 10.0 mi SSE 6.9 mph - N/A   Overcast
2:35 AM 14.0 °F 5.1 °F 10.4 °F 86% 30.35 in 10.0 mi South 5.8 mph - N/A Snow Light Snow
2:55 AM 14.0 °F 3.9 °F 10.4 °F 86% 30.34 in 10.0 mi SSE 6.9 mph - N/A   Overcast
3:15 AM 14.0 °F 2.9 °F 10.4 °F 86% 30.34 in 10.0 mi SSE 8.1 mph - N/A Snow Light Snow
3:35 AM 14.0 °F 3.9 °F 8.6 °F 79% 30.34 in 9.0 mi South 6.9 mph - N/A Snow Light Snow
3:55 AM 14.0 °F 0.5 °F 8.6 °F 79% 30.33 in 10.0 mi South 11.5 mph - N/A   Overcast
4:15 AM 14.0 °F 3.9 °F 8.6 °F 79% 30.33 in 9.0 mi SSE 6.9 mph - N/A Snow Light Snow
4:35 AM 14.0 °F 2.9 °F 8.6 °F 79% 30.33 in 10.0 mi South 8.1 mph - N/A   Overcast
4:55 AM 14.0 °F 1.2 °F 8.6 °F 79% 30.33 in 10.0 mi South 10.4 mph - N/A   Overcast
5:15 AM 14.0 °F 3.9 °F 8.6 °F 79% 30.33 in 10.0 mi SSE 6.9 mph - N/A   Overcast
5:35 AM 14.0 °F 3.9 °F 8.6 °F 79% 30.33 in 10.0 mi ESE 6.9 mph - N/A Snow Light Snow
5:55 AM 14.0 °F 2.9 °F 8.6 °F 79% 30.33 in 10.0 mi SSE 8.1 mph - N/A   Overcast
6:15 AM 14.0 °F 2.9 °F 8.6 °F 79% 30.33 in 10.0 mi SE 8.1 mph - N/A   Overcast
6:35 AM 14.0 °F 2.9 °F 8.6 °F 79% 30.32 in 10.0 mi SSE 8.1 mph - N/A   Overcast
6:55 AM 12.2 °F 0.7 °F 8.6 °F 85% 30.32 in 10.0 mi SE 8.1 mph - N/A   Overcast
7:15 AM 12.2 °F 0.7 °F 8.6 °F 85% 30.32 in 10.0 mi SSE 8.1 mph - N/A   Overcast
7:35 AM 10.4 °F -0.4 °F 6.8 °F 85% 30.32 in 9.0 mi SE 6.9 mph - N/A   Overcast
7:55 AM 12.2 °F 1.7 °F 6.8 °F 79% 30.32 in 9.0 mi SE 6.9 mph - N/A Snow Light Snow
8:15 AM 10.4 °F 0.8 °F 6.8 °F 85% 30.31 in 10.0 mi SE 5.8 mph - N/A   Mostly Cloudy
8:35 AM 12.2 °F 4.3 °F 6.8 °F 79% 30.31 in 10.0 mi ESE 4.6 mph - N/A   Mostly Cloudy
8:55 AM 12.2 °F 0.7 °F 6.8 °F 79% 30.31 in 10.0 mi ESE 8.1 mph - N/A   Overcast
9:15 AM 10.4 °F -1.5 °F 5.0 °F 79% 30.31 in 10.0 mi ESE 8.1 mph - N/A   Mostly Cloudy
9:35 AM 10.4 °F -3.3 °F 6.8 °F 85% 30.30 in 9.0 mi ESE 10.4 mph - N/A Snow Light Snow
9:55 AM 12.2 °F -1.8 °F 6.8 °F 79% 30.30 in 10.0 mi ESE 11.5 mph - N/A   Overcast
10:15 AM 12.2 °F -1.0 °F 6.8 °F 79% 30.29 in 10.0 mi ESE 10.4 mph - N/A   Overcast
10:35 AM 14.0 °F 2.0 °F 6.8 °F 73% 30.29 in 10.0 mi ESE 9.2 mph - N/A   Mostly Cloudy
10:55 AM 14.0 °F 1.2 °F 8.6 °F 79% 30.28 in 10.0 mi SE 10.4 mph - N/A   Partly Cloudy
11:15 AM 14.0 °F 2.0 °F 8.6 °F 79% 30.27 in 10.0 mi ESE 9.2 mph - N/A   Clear
11:35 AM 15.8 °F 2.1 °F 8.6 °F 73% 30.26 in 10.0 mi ESE 12.7 mph - N/A   Clear
11:55 AM 15.8 °F 2.1 °F 10.4 °F 79% 30.25 in 10.0 mi SE 12.7 mph - N/A   Clear
12:15 PM 15.8 °F 0.9 °F 10.4 °F 79% 30.25 in 10.0 mi SE 15.0 mph - N/A   Clear
12:35 PM 17.6 °F 4.3 °F 10.4 °F 73% 30.24 in 10.0 mi ESE 12.7 mph 17.3 mph N/A   Clear
12:55 PM 17.6 °F 3.7 °F 10.4 °F 73% 30.23 in 10.0 mi ESE 13.8 mph 17.3 mph N/A   Clear
1:15 PM 17.6 °F 5.0 °F 10.4 °F 73% 30.21 in 10.0 mi ESE 11.5 mph - N/A   Clear
1:35 PM 19.4 °F 6.0 °F 12.2 °F 74% 30.20 in 10.0 mi ESE 13.8 mph 19.6 mph N/A   Partly Cloudy
1:55 PM 19.4 °F 6.6 °F 14.0 °F 80% 30.19 in 10.0 mi ESE 12.7 mph - N/A   Clear
2:15 PM 19.4 °F 6.0 °F 14.0 °F 80% 30.18 in 10.0 mi SE 13.8 mph - N/A   Partly Cloudy
2:35 PM 19.4 °F 6.6 °F 14.0 °F 80% 30.16 in 10.0 mi ESE 12.7 mph - N/A   Scattered Clouds
2:55 PM 19.4 °F 5.5 °F 14.0 °F 80% 30.15 in 10.0 mi ESE 15.0 mph - N/A   Partly Cloudy
3:15 PM 19.4 °F 6.0 °F 14.0 °F 80% 30.14 in 10.0 mi ESE 13.8 mph 18.4 mph N/A   Partly Cloudy
3:35 PM 19.4 °F 6.0 °F 14.0 °F 80% 30.14 in 10.0 mi ESE 13.8 mph 18.4 mph N/A   Partly Cloudy
3:55 PM 19.4 °F 5.5 °F 14.0 °F 80% 30.12 in 10.0 mi ESE 15.0 mph 19.6 mph N/A   Clear
4:15 PM 19.4 °F 4.5 °F 14.0 °F 80% 30.12 in 10.0 mi ESE 17.3 mph 20.7 mph N/A   Clear
4:35 PM 19.4 °F 5.5 °F 14.0 °F 80% 30.12 in 10.0 mi ESE 15.0 mph - N/A   Clear
4:55 PM 19.4 °F 7.2 °F 14.0 °F 80% 30.12 in 10.0 mi ESE 11.5 mph - N/A   Clear
5:15 PM 19.4 °F 6.6 °F 14.0 °F 80% 30.11 in 10.0 mi ESE 12.7 mph 18.4 mph N/A   Clear
5:35 PM 19.4 °F 6.6 °F 14.0 °F 80% 30.11 in 10.0 mi East 12.7 mph - N/A   Clear
5:55 PM 19.4 °F 7.9 °F 14.0 °F 80% 30.12 in 10.0 mi ESE 10.4 mph - N/A   Clear
6:15 PM 17.6 °F 7.3 °F 12.2 °F 79% 30.12 in 10.0 mi East 8.1 mph - N/A   Partly Cloudy
6:35 PM 17.6 °F 5.7 °F 10.4 °F 73% 30.11 in 10.0 mi East 10.4 mph - N/A   Clear
6:55 PM 15.8 °F 5.1 °F 10.4 °F 79% 30.11 in 10.0 mi East 8.1 mph 16.1 mph N/A   Clear
7:15 PM 15.8 °F 6.1 °F 10.4 °F 79% 30.11 in 10.0 mi East 6.9 mph 17.3 mph N/A   Clear
7:35 PM 14.0 °F 2.9 °F 10.4 °F 86% 30.11 in 10.0 mi East 8.1 mph - N/A   Clear
7:55 PM 14.0 °F 1.2 °F 10.4 °F 86% 30.09 in 10.0 mi East 10.4 mph - N/A   Clear
8:35 PM 14.0 °F -1.4 °F 8.6 °F 79% 30.07 in 10.0 mi ESE 15.0 mph 18.4 mph N/A   Clear
8:55 PM 14.0 °F -0.8 °F 8.6 °F 79% 30.08 in 10.0 mi ESE 13.8 mph 19.6 mph N/A   Clear
9:15 PM 14.0 °F -0.2 °F 8.6 °F 79% 30.08 in 10.0 mi ESE 12.7 mph 20.7 mph N/A   Clear
9:35 PM 14.0 °F -1.4 °F 8.6 °F 79% 30.07 in 10.0 mi ESE 15.0 mph - N/A   Partly Cloudy
9:55 PM 14.0 °F 0.5 °F 8.6 °F 79% 30.07 in 10.0 mi ESE 11.5 mph - N/A   Clear
10:15 PM 14.0 °F 1.2 °F 8.6 °F 79% 30.07 in 10.0 mi ESE 10.4 mph 19.6 mph N/A   Clear
10:35 PM 14.0 °F 0.5 °F 8.6 °F 79% 30.07 in 10.0 mi ESE 11.5 mph 20.7 mph N/A   Clear
10:55 PM 14.0 °F 2.9 °F 8.6 °F 79% 30.06 in 10.0 mi ESE 8.1 mph - N/A   Clear
11:15 PM 14.0 °F -0.8 °F 8.6 °F 79% 30.05 in 10.0 mi ESE 13.8 mph 20.7 mph N/A   Clear
11:35 PM 14.0 °F 0.5 °F 8.6 °F 79% 30.04 in 10.0 mi ESE 11.5 mph 19.6 mph N/A   Clear
11:55 PM 14.0 °F 2.9 °F 8.6 °F 79% 30.04 in 10.0 mi ESE 8.1 mph 16.1 mph N/A   Clear